Location: Newark
(40.2370°N, 1.4081°W)
Time: 06:10:33
(UTC+00:00)

Hubble Space Telescope - Visible Passes

Search period start: 12 November 2019 00:00
Search period end: 22 November 2019 00:00
Orbit: 536 x 540 km, 28.5° (Epoch: 10 November)

Date Brightness Start Highest point End Pass type
(mag) Time Alt. Az. Time Alt. Az. Time Alt. Az.
20 Nov 3.3 17:55:19 10° S 17:56:11 11° SSE 17:57:03 10° SSE visible
21 Nov 3.2 17:43:51 10° S 17:45:27 12° SSE 17:47:03 10° SE visible
21 Nov 3.5 19:23:21 10° SW 19:24:04 12° SSW 19:24:04 12° SSW visible
